Russell, KS

12:23 AM CST on January 17, 2017 (GMT -0600)
Russell Municipal

Weather History for KRSL - March, 2013

Change the Weather History Date:

Tuesday, March 26, 2013

  Actual Average Record
Temperature  
Mean Temperature 31 °F -  
Max Temperature 50 °F 60 °F 90 °F (1989)
Min Temperature 12 °F 34 °F -2 °F (1955)
Degree Days  
Heating Degree Days 34    
Moisture  
Dew Point 19 °F    
Average Humidity 64    
Maximum Humidity 89    
Minimum Humidity 38    
Precipitation  
Precipitation 0.00 in - - ()
Sea Level Pressure  
Sea Level Pressure 30.31 in    
Wind  
Wind Speed 7 mph (SSE)    
Max Wind Speed 20 mph    
Max Gust Speed 25 mph    
Visibility 10 miles    
Events Rain    
Averages and records for this station are not official NWS values.
T = Trace of Precipitation, MM = Missing Value Source: NWS Daily Summary

Daily Weather History Graph

Daily Weather History Graph

Search for Another Location

Airport or City:

Trip Planner

Search our weather history database for the weather conditions in past years. The results will help you decide how hot, cold, wet, or windy it might be!

Date:

Astronomy

Mar. 26, 2013 Rise Set
Actual Time 7:28 AM CDT 7:53 PM CDT
Civil Twilight 7:02 AM CDT 8:20 PM CDT
Nautical Twilight 6:30 AM CDT 8:51 PM CDT
Astronomical Twilight 5:58 AM CDT 9:23 PM CDT
Moon 7:31 PM CDT (3/26) 6:46 AM CDT (3/26)
Length of Visible Light 13h 17m
Length of Day
12h 24m
Waxing Gibbous, 99% of the Moon is Illuminated
Mar 26
Waxing Gibbous
Mar 27
Full
Apr 2
Last Quarter
Apr 10
New
Apr 18
First Quarter

Hourly Weather History & Observations

Time (CDT) Temp. Windchill Dew Point Humidity Pressure Visibility Wind Dir Wind Speed Gust Speed Precip Events Conditions
12:53 AM 23.0 °F 17.0 °F 12.9 °F 65% 30.43 in 10.0 mi North 4.6 mph - N/A   Clear
1:53 AM 21.0 °F 14.6 °F 12.9 °F 71% 30.42 in 10.0 mi North 4.6 mph - N/A   Clear
2:53 AM 18.0 °F 12.7 °F 12.9 °F 81% 30.43 in 10.0 mi NNW 3.5 mph - N/A   Clear
3:53 AM 18.0 °F 12.7 °F 12.9 °F 81% 30.41 in 10.0 mi WNW 3.5 mph - N/A   Clear
4:53 AM 14.0 °F - 10.9 °F 88% 30.42 in 10.0 mi Calm Calm - 0.00 in   Clear
5:53 AM 14.0 °F - 10.9 °F 88% 30.41 in 10.0 mi Calm Calm - N/A   Clear
6:53 AM 12.9 °F 5.2 °F 9.0 °F 84% 30.42 in 10.0 mi SSW 4.6 mph - N/A   Clear
7:53 AM 12.0 °F - 9.0 °F 88% 30.44 in 10.0 mi Calm Calm - N/A   Clear
8:53 AM 19.9 °F 12.1 °F 17.1 °F 89% 30.42 in 10.0 mi South 5.8 mph - 0.00 in   Clear
9:53 AM 26.1 °F 16.8 °F 19.9 °F 78% 30.43 in 10.0 mi South 9.2 mph - 0.00 in   Clear
10:53 AM 30.9 °F 21.7 °F 21.0 °F 67% 30.41 in 10.0 mi SSW 11.5 mph - N/A   Clear
11:53 AM 34.0 °F 26.6 °F 21.0 °F 59% 30.38 in 10.0 mi South 9.2 mph - 0.00 in   Clear
12:53 PM 37.9 °F 32.1 °F 21.0 °F 51% 30.35 in 10.0 mi South 8.1 mph - N/A   Clear
1:53 PM 39.9 °F 33.9 °F 21.0 °F 47% 30.31 in 10.0 mi South 9.2 mph 19.6 mph 0.00 in   Clear
2:53 PM 43.0 °F 36.8 °F 21.0 °F 42% 30.28 in 10.0 mi SSE 11.5 mph 20.7 mph 0.00 in   Clear
3:53 PM 46.9 °F - 24.1 °F 41% 30.23 in 10.0 mi SSE 15.0 mph 21.9 mph 0.00 in Rain Light Rain
4:53 PM 48.9 °F - 25.0 °F 39% 30.21 in 10.0 mi South 15.0 mph - 0.00 in Rain Light Rain
5:53 PM 50.0 °F - 25.0 °F 38% 30.18 in 10.0 mi SSE 19.6 mph 25.3 mph 0.00 in Rain Light Rain
6:53 PM 48.0 °F - 26.1 °F 42% 30.17 in 10.0 mi SE 18.4 mph - 0.00 in Rain Light Rain
7:53 PM 42.1 °F 34.9 °F 26.1 °F 53% 30.17 in 10.0 mi SE 13.8 mph - 0.00 in   Clear
8:53 PM 39.9 °F 31.8 °F 26.1 °F 58% 30.16 in 10.0 mi SE 15.0 mph - N/A   Clear
9:53 PM 37.9 °F 28.5 °F 26.1 °F 62% 30.15 in 10.0 mi SE 17.3 mph - N/A   Clear
10:53 PM 37.0 °F 27.0 °F 26.1 °F 65% 30.15 in 10.0 mi SE 18.4 mph - N/A   Clear
11:53 PM 37.0 °F 28.1 °F 25.0 °F 62% 30.15 in 10.0 mi SE 15.0 mph - N/A   Partly Cloudy